IRNSS-1B

Last updated on Wed Jul 09 2025 00:02:45 GMT+0000 (Coordinated Universal Time)

1 39635U 14017A 25189.21710003 .00000153 00000+0 00000+0 0 9995 2 39635 29.1099 246.2726 0022187 192.0734 341.3917 1.00276311 41344
UTC large
Height (km)
Speed (km/s)
/
Latitude / Longitude
Inclination (degrees)
Orbital Period (minutes)
Azimuth
Elevation
Range (km)
Doppler Factor

Next 0 passes for location: London (51.5072 / 0.1276)

Sorry there are no passes over London.